Location: Rounton
(54.4000°N, 1.3500°W)
Time: 02:24:41
(UTC+00:00)

Transit 4A - Pass Details

Date: 30 November 2021
Orbit: 864 x 981 km, 66.8° (Epoch: 19 January)

Event Time Altitude Azimuth Distance (km) Brightness Sun altitude
Exits shadow 04:25:26 80° 139° (SE) 977 7.9 -30.3°
Drops below altitude 10° 04:31:24 10° 141° (SE) 2,711 10.7 -29.4°
Sets 04:33:58 0° 141° (SE) 3,664 11.5 -29.0°
